Terminal Aerodrome Forecast
Issued by NWS St Louis, MO

Home | Current Version | Previous Version | Text Only | Print | Product List | Glossary On
Versions: 1 2 3 4 5 6 7 8 9 10 11 12 13 14 15 16 17 18
000
FTUS43 KLSX 241700
TAFCOU
TAF
KCOU 241720Z 2418/2518 20009KT P6SM BKN025 BKN250
     FM250600 25005KT 3SM BR SCT250
     FM251500 32007KT P6SM SKC=

USA.gov is the U.S. government's official web portal to all federal, state and local government web resources and services.